This demonstration page uses our WeatherBlox Daily Observations layout. Learn more.

Left ArrowRight Arrow

41.12389, -100.76542

Hourly Observations for March 14, 2021

Temp ( °F °C ) Dew Point ( °F °C ) Humidity (%) Winds ( mph kmh ) Pressure ( in mb ) Visibility ( mi km ) Precip ( " mm )
12:53 am 00:53 Cloudy with Light Rain 41 5 38 3.3 89 89 E 24 39 30.00 1016 9 14 0.10 2.54
1:53 am 01:53 Cloudy with Rain 41 5 38 3.3 89 89 E 21 33 30.00 1016 6 10 0.10 2.54
3:48 am 03:48 Cloudy with Light Rain 41 5 37 3 87 87 ENE 28 44 29.93 1013 10 16 0.10 2.54
3:53 am 03:53 Cloudy with Light Rain 41 5 37 2.8 86 86 ENE 28 44 29.91 1013 10 16 0.10 2.54
4:19 am 04:19 Cloudy with Light Rain 41 5 37 2.8 86 86 ENE 25 41 29.90 1012 10 16 0.00 0.00
4:53 am 04:53 Cloudy with Light Rain 41 5 37 2.8 86 86 E 33 54 29.86 1011 10 16 0.02 0.51
5:53 am 05:53 Cloudy with Light Rain 41 5 37 2.8 86 86 ENE 29 46 29.83 1010 10 16 0.01 0.25
6:53 am 06:53 Cloudy with Rain 41 5 37 2.8 86 86 E 25 41 29.83 1010 8 13 0.05 1.27
7:53 am 07:53 Cloudy with Heavy Rain 41 5 38 3.3 89 89 E 25 41 29.81 1009 5 8 0.21 5.33
8:13 am 08:13 Cloudy with Rain 41 5 38 3.3 89 89 E 24 39 29.83 1010 7 11 0.10 2.54
8:42 am 08:42 Cloudy with Heavy Rain 41 5 37 2.8 86 86 E 23 37 29.82 1010 5 8 0.24 6.10
8:53 am 08:53 Cloudy with Rain 41 5 38 3.3 89 89 E 21 33 29.80 1009 5 8 0.31 7.87
9:00 am 09:00 Cloudy with Heavy Rain 41 5 37 2.8 86 86 E 22 35 29.82 1010 6 10 0.03 0.76
9:28 am 09:28 Cloudy with Heavy Rain 41 5 38 3.3 89 89 E 29 46 29.83 1010 4 6 0.21 5.33
9:53 am 09:53 Cloudy with Heavy Rain 41 5 37 2.8 86 86 E 25 41 29.81 1010 4 6 0.33 8.38
10:19 am 10:19 Cloudy with Heavy Rain 41 5 37 2.8 86 86 E 21 33 29.82 1010 4 6 0.12 3.05
10:35 am 10:35 Cloudy with Heavy Rain 41 5 37 2.8 86 86 E 23 37 29.83 1010 5 8 0.21 5.33
10:53 am 10:53 Cloudy with Rain 41 5 37 2.8 86 86 E 22 35 29.79 1009 5 8 0.31 7.87
11:38 am 11:38 Cloudy with Light Rain 41 5 37 2.8 86 86 E 31 50 29.82 1010 3 5 0.02 0.51
11:45 am 11:45 Cloudy with Light Rain 41 5 37 2.8 86 86 E 33 54 29.82 1010 2 3 0.03 0.76
11:53 am 11:53 Cloudy with Light Rain 41 5 37 2.8 86 86 E 36 57 29.80 1009 3 4 0.03 0.76
12:01 pm 12:01 Cloudy with Light Rain 40 4.4 36 2.2 86 86 E 36 57 29.82 1010 3 5 0.00 0.00
12:53 pm 12:53 Cloudy with Light Rain 39 3.9 36 2.2 89 89 E 26 43 29.81 1010 3 4 0.02 0.51
1:00 pm 13:00 Cloudy with Light Rain 39 3.9 36 2.2 89 89 E 30 48 29.85 1011 3 5 0.01 0.25
1:15 pm 13:15 Cloudy with Light Rain 40 4.4 36 2.2 86 86 E 26 43 29.84 1011 6 10 0.01 0.25
1:53 pm 13:53 Cloudy 40 4.4 36 2.2 86 86 E 30 48 29.80 1009 10 16 0.02 0.51
2:53 pm 14:53 Cloudy 40 4.4 36 2.2 86 86 E 28 44 29.80 1009 10 16 0.00 0.00
3:03 pm 15:03 Cloudy 40 4.4 36 2.2 86 86 E 31 50 29.82 1010 10 16 0.00 0.00
3:53 pm 15:53 Cloudy with Light Rain 40 4.4 37 2.8 89 89 E 26 43 29.79 1009 5 8 0.00 0.00
4:53 pm 16:53 Cloudy 40 4.4 36 2.2 86 86 E 26 43 29.80 1009 7 11 0.00 0.00
5:53 pm 17:53 Cloudy 40 4.4 36 2.2 86 86 E 25 41 29.81 1009 10 16 0.00 0.00
6:53 pm 18:53 Cloudy with Mist and Fog 40 4.4 36 2.2 86 86 ENE 21 33 29.82 1010 6 10 0.00 0.00
7:08 pm 19:08 Cloudy with Mist and Fog 39 3.9 36 2.2 89 89 ENE 16 26 29.86 1011 4 6 0.00 0.00
7:36 pm 19:36 Cloudy with Mist and Fog 39 3.9 36 2.2 89 89 ENE 17 28 29.87 1011 6 10 0.00 0.00
7:53 pm 19:53 Cloudy with Light Rain 39 3.9 36 2.2 89 89 ENE 17 28 29.85 1011 4 6 0.00 0.00
8:53 pm 20:53 Cloudy with Light Rain 38 3.3 35 1.7 89 89 ENE 14 22 29.87 1011 5 8 0.01 0.25
9:53 pm 21:53 Cloudy with Mist and Fog 38 3.3 35 1.7 89 89 ENE 13 20 29.87 1011 6 10 0.01 0.25
10:53 pm 22:53 Cloudy with Mist and Fog 38 3.3 35 1.7 89 89 ENE 15 24 29.87 1012 6 10 0.00 0.00
11:53 pm 23:53 Cloudy 38 3.3 35 1.7 89 89 ENE 12 19 29.86 1011 8 13 0.00 0.00

Powered by AerisWeather